[[{"header":{"parameterUnit":"m.s-1","parameterCategory":1,"la1":30.2991,"la2":30.254,"lo1":-89.0895,"lo2":-89.0444,"dy":0.0017,"dx":0.0017,"nx":28,"ny":28,"refTime":"2025-07-06T09:00:00:Z","depth":0,"parameterNumber":2,"parameterNumberName":"U-component_of_WINDS"},"data":[0,0,0,0,0,0,0,0,0,0,0,0,0,0,0,0,0,0,0,0,0,0,0,0,0,0,0,0,0,0,0,0,0,0,0,0,0,0,0,0,0,0,0,0,0,0,0,0,0,0,0,0,0,0,0,0,0,0,1.303,1.3031,0,1.3124,1.3125,1.3126,1.3143,1.3142,1.3142,1.3141,1.3234,1.3237,1.324,0,0,0,0,0,0,0,0,0,0,0,0,0,1.2864,1.2867,1.303,1.3031,1.3033,1.3123,1.3125,1.3126,1.3143,1.3142,1.3141,1.3141,1.3233,1.3237,1.3241,0,0,0,0,0,0,0,0,0,0,0,0,0,1.2945,1.2868,1.303,1.3052,1.3055,1.3123,1.3125,1.3126,1.3143,1.3142,1.3141,1.314,1.3232,1.3236,1.3241,1.3293,0,0,1.3256,1.3258,0,0,0,0,0,0,0,0,1.294,1.2951,1.3048,1.3051,1.3054,1.3121,1.31,1.3182,1.3144,1.311,1.3141,1.314,1.3197,1.3205,1.3225,1.3297,1.3301,1.3256,1.3259,1.3261,1.3262,0,0,0,0,0,0,0,1.2935,1.2947,1.3067,1.3049,1.3053,1.3057,1.3067,1.3116,1.3158,1.3113,1.3114,1.3125,1.3199,1.322,1.3227,1.3303,1.3256,1.326,1.3263,1.3265,1.3422,1.3424,0,0,0,0,0,0,1.2925,1.2942,1.3064,1.307,1.2993,1.306,1.3072,1.31,1.3158,1.3166,1.3126,1.3126,1.3212,1.3221,1.323,1.3295,1.3261,1.3266,1.3268,1.3421,1.3423,1.3424,0,0,0,0,0,0,1.2922,1.2936,1.306,1.3007,1.3023,1.3065,1.3096,1.3103,1.3124,1.3168,1.3176,1.314,1.3212,1.3223,1.3277,1.3298,1.3268,1.3272,1.3419,1.3421,1.3423,1.3424,0,0,0,0,0,0,1.2917,1.2935,1.2956,1.3007,1.3025,1.3107,1.3098,1.3105,1.3133,1.3133,1.3183,1.3191,1.3212,1.327,1.3282,1.3304,1.3276,1.3418,1.342,1.3423,1.3422,1.3425,1.3428,0,0,0,0,0,1.2911,1.2952,1.2957,1.2971,1.3052,1.3108,1.3118,1.3143,1.3134,1.3155,1.3183,1.3189,1.3294,1.3276,1.3289,1.3313,1.3417,1.342,1.3423,1.3421,1.3425,1.3428,0,0,0,0,0,0,1.2901,1.2959,1.2965,1.3023,1.3061,1.3111,1.3138,1.3146,1.3186,1.3185,1.3212,1.3224,1.3276,1.33,1.3278,1.3366,1.3355,1.336,1.3348,1.3353,1.3356,1.3349,1.328,0,0,0,0,0,1.2905,1.2947,1.2995,1.3042,1.306,1.3096,1.3121,1.3136,1.3176,1.3191,1.3223,1.3261,1.3302,1.3329,1.3369,1.3425,1.3436,1.3448,1.3451,1.3454,1.3459,1.349,1.3495,1.3434,1.3434,1.3434,0,0,1.2915,1.2952,1.2976,1.304,1.3071,1.3112,1.3109,1.3152,1.3183,1.3198,1.3251,1.3275,1.3319,1.3374,1.34,1.3395,1.3478,1.3458,1.3459,1.3463,1.3493,1.3499,1.3504,1.3436,1.3435,1.3435,0,0,1.2954,1.2987,1.3029,1.306,1.3107,1.313,1.314,1.3189,1.3207,1.326,1.3272,1.3308,1.3379,1.3409,1.3434,1.3484,1.3491,1.3496,1.3513,1.3543,1.3548,1.3552,1.357,1.3576,1.3501,1.3501,1.3501,0,1.2961,1.3024,1.305,1.3093,1.3121,1.3136,1.3179,1.3208,1.3265,1.3283,1.3277,1.3366,1.3397,1.3459,1.3471,1.3491,1.3503,1.3491,1.3545,1.355,1.3554,1.3571,1.3578,1.3501,1.3501,1.3501,1.3501,0,1.3029,1.3073,1.3101,1.3157,1.3188,1.323,1.3262,1.329,1.3302,1.3326,1.338,1.3417,1.3465,1.3481,1.3493,1.3545,1.3541,1.354,1.3529,1.356,1.3577,1.3583,1.3502,1.3502,1.3502,1.3502,0,0,1.3064,1.3134,1.3144,1.3169,1.3222,1.3256,1.3299,1.3346,1.337,1.3408,1.3445,1.3504,1.3503,1.3531,1.3547,1.3574,1.361,1.3569,1.3571,1.3576,1.3669,1.3669,1.3676,1.3615,1.3616,1.3617,1.3665,0,1.311,1.3188,1.3212,1.3278,1.3318,1.3333,1.3371,1.3406,1.3429,1.3466,1.3491,1.3533,1.3529,1.3546,1.3573,1.36,1.3629,1.3597,1.3648,1.365,1.3637,1.3685,1.3686,1.3729,1.3672,1.3673,1.3674,0,1.3173,1.3214,1.3283,1.333,1.3348,1.3381,1.3427,1.3462,1.3503,1.3517,1.3549,1.3562,1.3607,1.3594,1.3655,1.3633,1.3655,1.3671,1.3674,1.3679,1.3664,1.3692,1.3743,1.375,1.3684,1.3683,1.3683,0,1.3191,1.3263,1.3314,1.3336,1.3392,1.3415,1.3439,1.3479,1.3506,1.3545,1.3563,1.3607,1.363,1.3664,1.3688,1.3677,1.3748,1.3736,1.3761,1.376,1.3775,1.3774,1.383,1.3789,1.3789,1.3789,1.3789,0,1.3239,1.3281,1.3323,1.3355,1.3402,1.3429,1.3474,1.3499,1.3534,1.357,1.3585,1.3618,1.3649,1.3686,1.3705,1.3753,1.3764,1.3776,1.3781,1.3775,1.3773,1.379,1.3788,1.3791,1.3791,1.379,1.379,0,1.3268,1.3298,1.3355,1.3404,1.3417,1.3449,1.3491,1.3521,1.3545,1.3589,1.3601,1.3638,1.3682,1.3711,1.3766,1.378,1.3832,1.3835,1.3818,1.382,1.3843,1.384,1.3912,1.3923,1.3875,1.3875,1.3876,0,1.3297,1.3329,1.3382,1.3407,1.3432,1.3473,1.3501,1.3528,1.3556,1.3605,1.3629,1.3674,1.3712,1.3781,1.3813,1.3855,1.386,1.3882,1.3867,1.3859,1.386,1.3858,1.3861,1.3885,1.3885,1.3886,1.3886,0,1.3344,1.3357,1.3397,1.3442,1.3475,1.3512,1.3548,1.3568,1.3602,1.3632,1.3678,1.3707,1.3764,1.3809,1.3854,1.3878,1.3888,1.3891,1.3898,1.3892,1.3881,1.3887,1.3825,1.3889,1.3888,1.3888,1.3888,1.3888,1.3373,1.3403,1.3445,1.3488,1.3519,1.3553,1.3584,1.3611,1.365,1.3699,1.3713,1.3761,1.38,1.3862,1.3887,1.3924,1.3921,1.3932,1.3935,1.3937,1.3937,1.3875,1.3932,1.3932,1.3932,1.3932,1.3932,0,1.3421,1.3449,1.3489,1.354,1.3574,1.358,1.3621,1.3649,1.3691,1.3727,1.3764,1.3816,1.3859,1.3894,1.3938,1.3961,1.3966,1.3971,1.397,1.3975,1.3938,1.3926,1.3966,1.3966,1.3966,1.3966,1.3966,1.3966,1.345,1.35,1.3518,1.3584,1.3611,1.3658,1.3681,1.3712,1.374,1.3798,1.3834,1.3857,1.3892,1.3939,1.3979,1.3988,1.4003,1.4007,1.4017,1.3982,1.3978,1.3974,1.3964,1.4011,1.4011,1.4051,1.4052,1.4052]},{"header":{"parameterUnit":"m.s-1","parameterCategory":1,"la1":30.2991,"la2":30.254,"lo1":-89.0895,"lo2":-89.0444,"dy":0.0017,"dx":0.0017,"nx":28,"ny":28,"refTime":"2025-07-06T09:00:00:Z","depth":0,"parameterNumber":3,"parameterNumberName":"V-component_of_WINDS"},"data":[0,0,0,0,0,0,0,0,0,0,0,0,0,0,0,0,0,0,0,0,0,0,0,0,0,0,0,0,0,0,0,0,0,0,0,0,0,0,0,0,0,0,0,0,0,0,0,0,0,0,0,0,0,0,0,0,0,0,5.5787,5.5787,0,5.5831,5.5831,5.5832,5.5773,5.5771,5.5768,5.5766,5.5807,5.5809,5.5812,0,0,0,0,0,0,0,0,0,0,0,0,0,5.5646,5.5649,5.5787,5.5787,5.5788,5.5831,5.5831,5.5832,5.5773,5.577,5.5768,5.5765,5.5806,5.5809,5.5813,0,0,0,0,0,0,0,0,0,0,0,0,0,5.57,5.565,5.5787,5.5764,5.5762,5.583,5.5831,5.5832,5.5774,5.577,5.5767,5.5764,5.5804,5.5809,5.5813,5.5904,0,0,5.5827,5.5829,0,0,0,0,0,0,0,0,5.5697,5.5705,5.5767,5.5766,5.5764,5.5793,5.5796,5.5856,5.5774,5.5769,5.5766,5.5763,5.5804,5.5809,5.5824,5.5906,5.5908,5.5827,5.583,5.5832,5.5833,0,0,0,0,0,0,0,5.5693,5.5703,5.5804,5.5768,5.5766,5.5749,5.5754,5.5807,5.5804,5.5769,5.5765,5.5771,5.5803,5.5819,5.5824,5.5908,5.5827,5.5831,5.5834,5.5836,5.6065,5.6068,0,0,0,0,0,0,5.5693,5.57,5.5802,5.5805,5.5722,5.5754,5.5759,5.5787,5.5803,5.5802,5.5774,5.5769,5.5813,5.5819,5.5825,5.5931,5.5832,5.5836,5.5839,5.6062,5.6066,5.607,0,0,0,0,0,0,5.569,5.5703,5.5801,5.5752,5.5763,5.576,5.5792,5.5789,5.5806,5.5807,5.5805,5.5792,5.5811,5.5819,5.5885,5.5932,5.5838,5.5843,5.6058,5.6063,5.6068,5.6145,0,0,0,0,0,0,5.5687,5.5702,5.5738,5.5753,5.5766,5.5862,5.5795,5.5792,5.5814,5.5807,5.5823,5.5823,5.5809,5.5878,5.5889,5.5936,5.5846,5.6054,5.606,5.6066,5.6138,5.6152,5.6164,0,0,0,0,0,5.5682,5.5758,5.5741,5.5753,5.5811,5.5865,5.5872,5.5856,5.5819,5.5853,5.5854,5.5822,5.5925,5.5886,5.5897,5.5947,5.605,5.6058,5.6066,5.6132,5.6149,5.6164,0,0,0,0,0,0,5.5748,5.5759,5.574,5.5824,5.5844,5.5855,5.5899,5.5875,5.5904,5.5897,5.5874,5.5878,5.5948,5.5954,5.591,5.6034,5.5981,5.5992,5.6028,5.6044,5.6057,5.6053,5.585,0,0,0,0,0,5.5772,5.5816,5.5824,5.5896,5.5907,5.5902,5.5924,5.591,5.5929,5.5937,5.5942,5.596,5.5996,5.6021,5.6054,5.6139,5.614,5.6178,5.6191,5.6202,5.621,5.6253,5.627,5.6094,5.6094,5.6094,0,0,5.5823,5.5835,5.5864,5.591,5.5924,5.5968,5.5909,5.5958,5.599,5.5944,5.6006,5.6011,5.6029,5.6105,5.6138,5.6111,5.6259,5.6211,5.622,5.6223,5.6263,5.628,5.6294,5.61,5.6099,5.6098,0,0,5.5937,5.5952,5.6013,5.6028,5.605,5.6045,5.606,5.6074,5.6076,5.6138,5.6104,5.614,5.6204,5.6218,5.6234,5.6352,5.6323,5.6363,5.643,5.6472,5.6486,5.6498,5.6538,5.6553,5.6372,5.6372,5.6372,0,5.5996,5.6063,5.6047,5.6099,5.6119,5.608,5.6141,5.6156,5.6187,5.6201,5.6171,5.6249,5.6259,5.6336,5.6364,5.6379,5.6393,5.6361,5.6486,5.6498,5.6509,5.6547,5.6562,5.6377,5.6376,5.6376,5.6376,0,5.6134,5.6181,5.6228,5.626,5.6285,5.6341,5.6331,5.6358,5.6342,5.634,5.6403,5.6413,5.6447,5.6465,5.6449,5.6539,5.6522,5.649,5.6435,5.653,5.6566,5.658,5.6384,5.6382,5.6381,5.6379,0,0,5.6291,5.6314,5.6331,5.6344,5.6365,5.6399,5.6452,5.6487,5.651,5.6532,5.6575,5.6629,5.6598,5.6616,5.6601,5.6639,5.6729,5.6601,5.6601,5.6623,5.6827,5.685,5.6867,5.6711,5.6713,5.6716,5.6824,0,5.6404,5.6498,5.6484,5.6573,5.6614,5.6578,5.6623,5.664,5.6639,5.6672,5.667,5.6708,5.6666,5.6677,5.6712,5.6711,5.6769,5.6703,5.6748,5.6749,5.6743,5.6886,5.6911,5.7014,5.6838,5.6841,5.6842,0,5.6549,5.6577,5.6671,5.6684,5.67,5.6742,5.6772,5.6805,5.6822,5.6818,5.6838,5.6816,5.6866,5.6813,5.688,5.6835,5.6853,5.6855,5.6858,5.6861,5.6801,5.6891,5.7046,5.7061,5.6864,5.6863,5.6861,0,5.6651,5.6713,5.6777,5.679,5.6807,5.6836,5.6844,5.6858,5.688,5.6905,5.6918,5.6948,5.6965,5.6988,5.6974,5.6937,5.7044,5.6989,5.704,5.7041,5.7064,5.7062,5.7222,5.7077,5.7077,5.7077,5.7077,0,5.6778,5.6836,5.6823,5.6862,5.6925,5.6908,5.697,5.6974,5.6986,5.7023,5.6993,5.7029,5.7009,5.7042,5.7031,5.7088,5.7096,5.7093,5.7089,5.7095,5.7095,5.7105,5.7097,5.7081,5.708,5.7079,5.7079,0,5.6903,5.6897,5.6964,5.6974,5.6978,5.7024,5.7032,5.7067,5.7064,5.7111,5.7121,5.7116,5.7153,5.7142,5.7182,5.7174,5.7246,5.7234,5.7241,5.7237,5.7288,5.7283,5.746,5.7481,5.7323,5.7325,5.7326,0,5.6984,5.7028,5.7043,5.7067,5.7077,5.7116,5.7137,5.7121,5.7144,5.7166,5.7198,5.7233,5.726,5.7321,5.7319,5.7349,5.7337,5.7396,5.7341,5.7345,5.7335,5.7333,5.7336,5.7407,5.7409,5.741,5.7411,0,5.7127,5.7121,5.7154,5.7186,5.7213,5.7237,5.7258,5.7278,5.7263,5.729,5.7329,5.735,5.7391,5.7425,5.7452,5.7458,5.7432,5.7429,5.7442,5.7448,5.745,5.7448,5.7269,5.7425,5.7424,5.7423,5.7422,5.7421,5.7231,5.7268,5.7284,5.7321,5.7335,5.7355,5.7388,5.7389,5.7422,5.7455,5.7443,5.7486,5.75,5.7534,5.7544,5.7576,5.7553,5.7572,5.7577,5.7582,5.7588,5.7446,5.7581,5.7581,5.758,5.758,5.758,0,5.7371,5.7379,5.7414,5.7444,5.7473,5.7447,5.7469,5.7494,5.7533,5.7549,5.7576,5.7619,5.7652,5.7653,5.7683,5.7709,5.7698,5.7717,5.7715,5.7716,5.7607,5.7592,5.7726,5.7726,5.7726,5.7726,5.7726,5.7726,5.7447,5.7507,5.7503,5.7569,5.7577,5.762,5.7635,5.7652,5.7664,5.7714,5.7742,5.7743,5.7752,5.7783,5.7811,5.781,5.7822,5.7846,5.7841,5.7739,5.7724,5.771,5.7696,5.7849,5.7849,5.7946,5.7947,5.7948]}]]